Location: LDNL
(36.4545°S, 141.6685°E)
Time: 10:47:44
(UTC+10:00)

Explorer 7 - Pass Details

Date: 18 August 2022
Orbit: 482 x 668 km, 50.3° (Epoch: 26 September)

Event Time Altitude Azimuth Distance (km) Brightness Sun altitude
Rises 16:10:35 0° 307° (NW) 2,990 12.2 19.5°
Reaches altitude 10° 16:12:55 10° 306° (NW) 2,093 12.3 19.1°
Maximum altitude 16:17:48 80° 218° (SW) 690 7.6 18.3°
Drops below altitude 10° 16:22:42 10° 131° (SE) 2,102 9.2 17.4°
Sets 16:25:03 0° 129° (SE) 3,004 10.0 17.0°
